Fitchburg, MA

6:50 AM EDT on May 28, 2017 (GMT -0400)
Fitchburg Municipal

Weather History for KFIT - November, 2011

Change the Weather History Date:

Wednesday, November 30, 2011

  Actual Average (KORH) Record (KORH)
Temperature  
Mean Temperature 53 °F -  
Max Temperature 60 °F 40 °F 65 °F (1962)
Min Temperature 45 °F 27 °F 6 °F (1929)
Degree Days  
Heating Degree Days 12    
Growing Degree Days 3 (Base 50)    
Moisture  
Dew Point 45 °F    
Average Humidity 74    
Maximum Humidity 100    
Minimum Humidity 51    
Precipitation  
Precipitation 0.28 in - - ()
Sea Level Pressure  
Sea Level Pressure 29.66 in    
Wind  
Wind Speed 6 mph (SW)    
Max Wind Speed 15 mph    
Max Gust Speed 23 mph    
Visibility 9 miles    
Events Rain    
Averages and records for this station are not official NWS values.
T = Trace of Precipitation, MM = Missing Value Source: NWS Daily Summary

Daily Weather History Graph

Daily Weather History Graph

Search for Another Location

Airport or City:

Trip Planner

Search our weather history database for the weather conditions in past years. The results will help you decide how hot, cold, wet, or windy it might be!

Date:

Astronomy

Nov. 30, 2011 Rise Set
Actual Time 6:55 AM EST 4:15 PM EST
Civil Twilight 6:24 AM EST 4:46 PM EST
Nautical Twilight 5:49 AM EST 5:21 PM EST
Astronomical Twilight 5:15 AM EST 5:55 PM EST
Moon 11:08 AM EST (11/30) 10:13 PM EST (11/30)
Length of Visible Light 10h 22m
Length of Day
9h 19m
Waxing Crescent, 33% of the Moon is Illuminated
Nov 30
Waxing Crescent
Dec 2
First Quarter
Dec 10
Full
Dec 17
Last Quarter
Dec 24
New

Hourly Weather History & Observations

Time (EST) Temp. Windchill Dew Point Humidity Pressure Visibility Wind Dir Wind Speed Gust Speed Precip Events Conditions
12:44 AM 57.2 °F - 57.2 °F 100% 29.64 in 4.0 mi Calm Calm - N/A Rain Rain
12:52 AM 57.9 °F - 57.0 °F 97% 29.64 in 5.0 mi East 4.6 mph - N/A Rain Heavy Rain
1:06 AM 57.2 °F - 57.2 °F 100% 29.61 in 2.5 mi ENE 4.6 mph - 0.07 in Rain Heavy Rain
1:28 AM 57.2 °F - 57.2 °F 100% 29.62 in 1.8 mi Calm Calm - 0.22 in Rain Heavy Rain
1:30 AM 57.2 °F - 57.2 °F 100% 29.62 in 2.0 mi ENE 3.5 mph - 0.22 in Rain Rain
1:34 AM 57.2 °F - 57.2 °F 100% 29.62 in 4.0 mi Calm Calm - 0.23 in Rain Light Rain
1:52 AM 57.9 °F - 57.0 °F 97% 29.60 in 8.0 mi Calm Calm - 0.24 in Rain Light Rain
2:21 AM 59.0 °F - 57.2 °F 94% 29.61 in 10.0 mi SE 8.1 mph - 0.00 in Rain Light Rain
2:34 AM 60.8 °F - 57.2 °F 88% 29.61 in 9.0 mi SSW 15.0 mph 18.4 mph 0.01 in Rain Light Rain
2:42 AM 60.8 °F - 55.4 °F 82% 29.61 in 10.0 mi SSW 10.4 mph 19.6 mph 0.01 in Rain Light Rain
2:52 AM 60.1 °F - 55.0 °F 83% 29.62 in 10.0 mi SSW 9.2 mph 18.4 mph 0.01 in Rain Light Rain
2:59 AM 59.0 °F - 53.6 °F 82% 29.62 in 10.0 mi SW 10.4 mph 19.6 mph 0.00 in Rain Light Rain
3:14 AM 57.2 °F - 53.6 °F 88% 29.63 in 10.0 mi SSW 15.0 mph 21.9 mph 0.01 in Rain Light Rain
3:52 AM 57.0 °F - 52.0 °F 83% 29.62 in 10.0 mi SSW 8.1 mph 16.1 mph 0.03 in   Overcast
4:34 AM 55.4 °F - 50.0 °F 82% 29.61 in 10.0 mi South 8.1 mph - 0.00 in   Overcast
4:52 AM 54.0 °F - 50.0 °F 86% 29.61 in 10.0 mi South 6.9 mph - 0.00 in   Overcast
5:52 AM 53.1 °F - 48.9 °F 86% 29.60 in 10.0 mi South 8.1 mph - N/A   Overcast
6:37 AM 53.6 °F - 44.6 °F 72% 29.62 in 10.0 mi SW 10.4 mph - N/A   Scattered Clouds
6:52 AM 51.1 °F - 43.0 °F 74% 29.62 in 10.0 mi Variable 5.8 mph 18.4 mph N/A   Partly Cloudy
8:43 AM 51.8 °F - 41.0 °F 67% 29.65 in 10.0 mi SW 5.8 mph - N/A   Overcast
8:52 AM 51.1 °F - 39.9 °F 66% 29.65 in 10.0 mi SW 11.5 mph 18.4 mph N/A   Overcast
9:04 AM 51.8 °F - 39.2 °F 62% 29.65 in 10.0 mi Variable 6.9 mph - N/A   Overcast
9:18 AM 51.8 °F - 39.2 °F 62% 29.65 in 10.0 mi SW 10.4 mph - N/A   Overcast
9:52 AM 51.1 °F - 39.0 °F 63% 29.65 in 10.0 mi SSW 8.1 mph 18.4 mph N/A   Mostly Cloudy
11:52 AM 54.0 °F - 36.0 °F 51% 29.62 in 10.0 mi SSW 12.7 mph 21.9 mph N/A   Clear
12:52 PM 52.0 °F - 37.0 °F 57% 29.63 in 10.0 mi SW 13.8 mph 23.0 mph N/A   Overcast
1:52 PM 52.0 °F - 35.1 °F 53% 29.62 in 10.0 mi WSW 10.4 mph 18.4 mph N/A   Mostly Cloudy
2:52 PM 52.0 °F - 35.1 °F 53% 29.63 in 10.0 mi WSW 10.4 mph - N/A   Scattered Clouds
3:52 PM 50.0 °F - 34.0 °F 54% 29.66 in 10.0 mi WSW 11.5 mph 18.4 mph N/A   Mostly Cloudy
5:52 PM 48.0 °F - 30.9 °F 52% 29.73 in 10.0 mi SW 5.8 mph - N/A   Overcast
6:52 PM 48.0 °F - 32.0 °F 54% 29.74 in 10.0 mi SSW 5.8 mph - N/A   Overcast
7:52 PM 46.9 °F - 30.9 °F 54% 29.77 in 10.0 mi West 9.2 mph - N/A   Overcast
8:52 PM 46.9 °F - 30.9 °F 54% 29.79 in 10.0 mi West 4.6 mph - N/A   Overcast
9:52 PM 46.0 °F - 32.0 °F 58% 29.80 in 10.0 mi Calm Calm - N/A   Overcast
10:52 PM 46.0 °F 43.1 °F 30.9 °F 56% 29.83 in 10.0 mi West 5.8 mph - N/A   Overcast
11:52 PM 45.0 °F 39.7 °F 30.0 °F 56% 29.86 in 10.0 mi WNW 10.4 mph 18.4 mph N/A   Scattered Clouds